SJF05 YSBK-YSSY

Flight info

Callsign SJF05
Flight time 0h -5m
Altitude 3000
Route ANKUB
Aircraft C46/M-SDF/S

Departure

Time 2026-05-06 01:25
Airport Sydney Bankstown Airport (YSBK)

Arrival

Time 2026-05-06 01:19
Airport Sydney Kingsford Smith International Airport (YSSY)
Time Latitude Longitude Altitude Speed Heading
2026-05-06 01:19 -33.92723 150.99624 24 ft 0 kts 34°
2026-05-06 01:21 -33.92687 150.99503 29 ft 0 kts 303°
2026-05-06 01:21 -33.92236 150.98237 24 ft 0 kts 303°
2026-05-06 01:22 -33.92204 150.98243 25 ft 16 kts
2026-05-06 01:22 -33.92184 150.98367 25 ft 21 kts 105°
2026-05-06 01:22 -33.92205 150.98470 26 ft 19 kts 117°
2026-05-06 01:23 -33.92328 150.98688 24 ft 40 kts 124°
2026-05-06 01:23 -33.92474 150.98936 24 ft 33 kts 109°
2026-05-06 01:23 -33.92565 150.99118 25 ft 24 kts 126°
2026-05-06 01:23 -33.92662 150.99287 26 ft 26 kts 127°
2026-05-06 01:24 -33.92717 150.99396 28 ft 10 kts 95°
2026-05-06 01:24 -33.92654 150.99404 25 ft 24 kts 308°
2026-05-06 01:24 -33.92420 150.98944 172 ft 95 kts 308°
2026-05-06 01:24 -33.91907 150.98304 585 ft 119 kts 317°
2026-05-06 01:25 -33.91250 150.97444 823 ft 136 kts 302°
2026-05-06 01:25 -33.91093 150.96310 1143 ft 149 kts 256°
2026-05-06 01:25 -33.91783 150.95507 1527 ft 150 kts 188°
2026-05-06 01:25 -33.92869 150.95501 1578 ft 164 kts 174°
2026-05-06 01:26 -33.94018 150.95678 1579 ft 170 kts 172°
2026-05-06 01:26 -33.95171 150.95884 1703 ft 165 kts 172°
2026-05-06 01:26 -33.96313 150.96040 1822 ft 165 kts 174°
2026-05-06 01:26 -33.97462 150.96115 1907 ft 167 kts 180°
2026-05-06 01:27 -33.98609 150.96262 1941 ft 168 kts 171°
2026-05-06 01:27 -33.99775 150.96553 1910 ft 169 kts 167°
2026-05-06 01:27 -34.00894 150.96892 2055 ft 165 kts 165°
2026-05-06 01:28 -34.02468 150.97430 2153 ft 168 kts 163°
2026-05-06 01:28 -34.03528 150.97943 2196 ft 169 kts 146°
2026-05-06 01:28 -34.04213 150.99091 1947 ft 176 kts 105°
2026-05-06 01:29 -34.03989 151.00395 2261 ft 161 kts 63°
2026-05-06 01:29 -34.03427 151.01645 2151 ft 172 kts 64°
2026-05-06 01:29 -34.02941 151.02917 2287 ft 165 kts 69°
2026-05-06 01:29 -34.02466 151.04170 2364 ft 166 kts 64°
2026-05-06 01:30 -34.01879 151.05384 2421 ft 166 kts 59°
2026-05-06 01:30 -34.01250 151.06546 2483 ft 167 kts 56°
2026-05-06 01:30 -34.00546 151.07669 2526 ft 167 kts 50°
2026-05-06 01:30 -33.99734 151.08661 2427 ft 167 kts 49°
2026-05-06 01:31 -33.98946 151.09713 2361 ft 170 kts 50°
2026-05-06 01:31 -33.98196 151.10790 2457 ft 167 kts 53°
2026-05-06 01:31 -33.97532 151.11891 2516 ft 166 kts 58°
2026-05-06 01:31 -33.96950 151.13097 2524 ft 163 kts 60°
2026-05-06 01:32 -33.96357 151.14371 1989 ft 180 kts 67°
2026-05-06 01:32 -33.95869 151.15766 1705 ft 182 kts 69°
2026-05-06 01:32 -33.95388 151.17195 1333 ft 182 kts 70°
2026-05-06 01:32 -33.95019 151.18487 1479 ft 147 kts 73°
2026-05-06 01:33 -33.94666 151.19711 889 ft 156 kts 78°
2026-05-06 01:33 -33.94429 151.20920 847 ft 139 kts 76°
2026-05-06 01:33 -33.94181 151.22114 790 ft 151 kts 77°
2026-05-06 01:33 -33.93930 151.23241 687 ft 155 kts 53°
2026-05-06 01:34 -33.93033 151.23151 594 ft 149 kts 303°
2026-05-06 01:34 -33.93053 151.21947 473 ft 147 kts 257°
2026-05-06 01:34 -33.93324 151.20767 407 ft 143 kts 255°
2026-05-06 01:34 -33.93581 151.19659 200 ft 130 kts 253°
2026-05-06 01:35 -33.93831 151.18663 32 ft 109 kts 253°
2026-05-06 01:35 -33.93998 151.17926 33 ft 80 kts 254°
2026-05-06 01:35 -33.94142 151.17305 18 ft 67 kts 253°
2026-05-06 01:35 -33.94245 151.16881 18 ft 41 kts 247°
2026-05-06 01:36 -33.94285 151.16712 15 ft 15 kts 257°
2026-05-06 01:36 -33.94315 151.16572 16 ft 18 kts 249°
2026-05-06 01:36 -33.94349 151.16432 15 ft 17 kts 268°
2026-05-06 01:36 -33.94276 151.16352 17 ft 10 kts
2026-05-06 01:37 -33.94239 151.16464 18 ft 20 kts 75°
2026-05-06 01:37 -33.94200 151.16648 17 ft 24 kts 78°
2026-05-06 01:37 -33.94186 151.16726 16 ft 1 kts 75°
2026-05-06 01:37 -33.94176 151.16764 17 ft 9 kts 72°
2026-05-06 01:38 -33.94105 151.16822 17 ft 6 kts
2026-05-06 01:38 -33.93996 151.16785 16 ft 24 kts 347°
2026-05-06 01:38 -33.93841 151.16736 16 ft 23 kts 342°
2026-05-06 01:38 -33.93743 151.16720 16 ft 5 kts 279°
2026-05-06 01:39 -33.93743 151.16714 16 ft 0 kts 230°
2026-05-06 01:44 -33.93751 151.16703 18 ft 4 kts 227°
2026-05-06 01:44 -33.93806 151.16721 16 ft 19 kts 164°
2026-05-06 01:44 -33.93894 151.16745 16 ft 0 kts 161°
2026-05-06 01:45 -33.93901 151.16749 16 ft 3 kts 158°
2026-05-06 01:45 -33.93945 151.16772 16 ft 10 kts 155°
2026-05-06 01:45 -33.93961 151.16780 16 ft 0 kts 155°
2026-05-06 01:46 -33.93968 151.16784 16 ft 3 kts 152°
2026-05-06 01:46 -33.94011 151.16813 16 ft 10 kts 150°
2026-05-06 01:46 -33.94022 151.16821 -11 ft 0 kts 149°
2026-05-06 01:47 -33.94040 151.16876 11 ft 12 kts 93°
2026-05-06 01:47 -33.94025 151.17001 15 ft 18 kts 78°
2026-05-06 01:47 -33.93994 151.17135 14 ft 7 kts 65°
2026-05-06 01:47 -33.93967 151.17230 14 ft 16 kts 70°
2026-05-06 01:48 -33.93951 151.17279 13 ft 0 kts 71°
2026-05-06 01:48 -33.93946 151.17293 13 ft 6 kts 68°
2026-05-06 01:48 -33.93936 151.17353 12 ft 0 kts 82°
2026-05-06 01:48 -33.93935 151.17354 12 ft 0 kts 81°
2026-05-06 01:49 -33.93935 151.17360 12 ft 5 kts 79°
2026-05-06 01:49 -33.93917 151.17458 13 ft 16 kts 76°
2026-05-06 01:49 -33.93877 151.17598 13 ft 20 kts 60°
2026-05-06 01:50 -33.93818 151.17750 15 ft 21 kts 102°
2026-05-06 01:50 -33.93806 151.17921 22 ft 20 kts 73°
2026-05-06 01:50 -33.93774 151.18055 25 ft 7 kts 73°
2026-05-06 01:50 -33.93751 151.18140 25 ft 14 kts 71°
2026-05-06 01:51 -33.93720 151.18274 25 ft 19 kts 77°
2026-05-06 01:51 -33.93686 151.18438 25 ft 22 kts 77°
2026-05-06 01:51 -33.93648 151.18622 25 ft 23 kts 76°
2026-05-06 01:51 -33.93649 151.18796 25 ft 17 kts 140°
2026-05-06 01:52 -33.93694 151.18821 22 ft 1 kts 162°
2026-05-06 01:52 -33.93710 151.18827 21 ft 0 kts 172°
2026-05-06 01:52 -33.93714 151.18827 21 ft 2 kts 195°
2026-05-06 01:52 -33.93731 151.18822 21 ft 0 kts 192°
2026-05-06 01:53 -33.93732 151.18821 21 ft 1 kts 191°
2026-05-06 01:53 -33.93750 151.18818 21 ft 6 kts 186°
2026-05-06 01:53 -33.93798 151.18790 20 ft 10 kts 248°
2026-05-06 01:53 -33.93822 151.18698 20 ft 13 kts 254°
2026-05-06 01:54 -33.93902 151.18276 56 ft 97 kts 254°
2026-05-06 01:54 -33.94112 151.17347 418 ft 122 kts 252°
2026-05-06 01:54 -33.94357 151.16240 624 ft 150 kts 258°
2026-05-06 01:54 -33.94579 151.15337 1465 ft 63 kts 105°
2026-05-06 01:55 -33.94525 151.14633 792 ft 151 kts 270°
2026-05-06 01:55 -33.94522 151.13342 950 ft 164 kts 270°
2026-05-06 01:55 -33.94544 151.11991 1210 ft 158 kts 262°
2026-05-06 01:55 -33.95374 151.11511 1320 ft 156 kts 144°
2026-05-06 01:56 -33.95590 151.12748 1340 ft 166 kts 82°
2026-05-06 01:56 -33.95477 151.14185 1114 ft 175 kts 95°
2026-05-06 01:56 -33.95753 151.15469 814 ft 153 kts 111°
2026-05-06 01:56 -33.96220 151.16743 147 ft 172 kts 116°
2026-05-06 01:57 -33.96781 151.17863 184 ft 146 kts 125°
2026-05-06 01:57 -33.96396 151.18729 375 ft 152 kts 352°
2026-05-06 01:57 -33.95477 151.18154 604 ft 156 kts 301°
2026-05-06 01:57 -33.95838 151.17225 1000 ft 139 kts 185°
2026-05-06 01:58 -33.96893 151.17330 840 ft 47 kts 174°
2026-05-06 01:58 -33.96328 151.17024 1316 ft 149 kts 345°
2026-05-06 01:58 -33.95954 151.17605 514 ft 145 kts 115°
2026-05-06 01:58 -33.95338 151.17825 96 ft 114 kts 341°
2026-05-06 01:59 -33.94632 151.17628 23 ft 93 kts 343°
2026-05-06 01:59 -33.94066 151.17482 35 ft 94 kts 343°
2026-05-06 01:59 -33.93267 151.17309 290 ft 131 kts 307°
2026-05-06 01:59 -33.93607 151.16325 351 ft 145 kts 212°
2026-05-06 02:00 -33.94564 151.15939 562 ft 146 kts 185°
2026-05-06 02:00 -33.95080 151.17037 305 ft 172 kts 114°
2026-05-06 02:00 -33.94349 151.17481 157 ft 146 kts 347°
2026-05-06 02:00 -33.93292 151.17297 388 ft 154 kts 347°
2026-05-06 02:01 -33.92611 151.17185 1444 ft 71 kts 161°
2026-05-06 02:01 -33.93390 151.17233 157 ft 142 kts 188°
2026-05-06 02:01 -33.93178 151.17037 262 ft 130 kts 347°
2026-05-06 02:01 -33.92249 151.16684 321 ft 122 kts 310°
2026-05-06 02:02 -33.92612 151.16664 408 ft 137 kts 185°
2026-05-06 02:02 -33.93519 151.16769 944 ft 15 kts 37°
2026-05-06 02:02 -33.92882 151.16818 711 ft 120 kts 349°
2026-05-06 02:02 -33.91916 151.16660 594 ft 155 kts 351°
2026-05-06 02:03 -33.91568 151.16738 1936 ft 31 kts 95°
2026-05-06 02:03 -33.91901 151.17342 1722 ft 117 kts 155°
2026-05-06 02:03 -33.92584 151.16854 691 ft 112 kts 323°
2026-05-06 02:03 -33.92752 151.16989 279 ft 80 kts 189°
2026-05-06 02:04 -33.93334 151.17088 99 ft 87 kts 169°
2026-05-06 02:04 -33.93631 151.16804 319 ft 100 kts 292°
2026-05-06 02:04 -33.92987 151.16824 427 ft 129 kts 42°
2026-05-06 02:04 -33.92755 151.17763 385 ft 129 kts 166°
2026-05-06 02:05 -33.93676 151.18093 410 ft 144 kts 145°
2026-05-06 02:05 -33.94291 151.18998 618 ft 135 kts 125°
2026-05-06 02:05 -33.94721 151.19999 737 ft 134 kts 103°
2026-05-06 02:05 -33.94742 151.21104 759 ft 136 kts 93°
2026-05-06 02:06 -33.94779 151.22280 602 ft 141 kts 94°
2026-05-06 02:06 -33.94824 151.23452 592 ft 137 kts 95°
2026-05-06 02:06 -33.94928 151.24604 494 ft 141 kts 101°
2026-05-06 02:06 -33.95160 151.25741 510 ft 138 kts 112°
2026-05-06 02:07 -33.95567 151.26779 489 ft 138 kts 126°
2026-05-06 02:07 -33.96216 151.27620 407 ft 138 kts 147°
2026-05-06 02:07 -33.97046 151.28188 362 ft 135 kts 141°
2026-05-06 02:07 -33.97530 151.29160 305 ft 142 kts 107°
2026-05-06 02:08 -33.97572 151.30349 193 ft 143 kts 82°
2026-05-06 02:08 -33.97249 151.31461 166 ft 140 kts 62°
2026-05-06 02:08 -33.96793 151.32477 209 ft 136 kts 63°
2026-05-06 02:08 -33.96159 151.33195 368 ft 122 kts 356°
2026-05-06 02:09 -33.95476 151.32713 609 ft 122 kts 318°
2026-05-06 02:09 -33.94823 151.32002 359 ft 130 kts 317°
2026-05-06 02:09 -33.94617 151.30929 542 ft 143 kts 274°
2026-05-06 02:09 -33.94447 151.29703 760 ft 155 kts 282°
2026-05-06 02:10 -33.94223 151.28397 851 ft 164 kts 281°
2026-05-06 02:10 -33.94006 151.27218 872 ft 141 kts 282°
2026-05-06 02:10 -33.93767 151.26084 928 ft 138 kts 287°
2026-05-06 02:10 -33.93527 151.24969 1052 ft 137 kts 278°
2026-05-06 02:11 -33.93417 151.23857 823 ft 137 kts 276°
2026-05-06 02:11 -33.93287 151.22743 693 ft 132 kts 277°
2026-05-06 02:11 -33.93253 151.21660 532 ft 123 kts 246°
2026-05-06 02:11 -33.93510 151.20777 465 ft 111 kts 271°
2026-05-06 02:12 -33.93564 151.19824 184 ft 121 kts 257°
2026-05-06 02:12 -33.93785 151.18828 38 ft 122 kts 251°
2026-05-06 02:12 -33.93988 151.17967 22 ft 94 kts 252°
2026-05-06 02:12 -33.94183 151.17176 97 ft 116 kts 246°
2026-05-06 02:13 -33.94374 151.16119 418 ft 134 kts 255°
2026-05-06 02:13 -33.94641 151.15055 1035 ft 131 kts 254°
2026-05-06 02:13 -33.94906 151.13981 1539 ft 138 kts 251°
2026-05-06 02:13 -33.95137 151.12882 1894 ft 130 kts 259°
2026-05-06 02:14 -33.95258 151.11751 1750 ft 140 kts 264°
2026-05-06 02:14 -33.95240 151.11422 2388 ft 34 kts 27°
2026-05-06 02:14 -33.95261 151.11967 482 ft 176 kts 112°
2026-05-06 02:14 -33.95575 151.13163 756 ft 138 kts 91°
2026-05-06 02:15 -33.95620 151.14292 720 ft 133 kts 97°
2026-05-06 02:15 -33.95736 151.15391 636 ft 139 kts 102°
2026-05-06 02:15 -33.95910 151.16573 427 ft 145 kts 86°
2026-05-06 02:15 -33.95410 151.17620 508 ft 137 kts 52°
2026-05-06 02:16 -33.94901 151.18628 413 ft 143 kts 66°
2026-05-06 02:16 -33.94385 151.19590 252 ft 131 kts 26°
2026-05-06 02:16 -33.93732 151.19354 102 ft 92 kts 287°
2026-05-06 02:16 -33.93848 151.18613 117 ft 103 kts 245°
2026-05-06 02:17 -33.94420 151.18357 367 ft 114 kts 144°
2026-05-06 02:17 -33.94864 151.19234 384 ft 138 kts 114°
2026-05-06 02:17 -33.95069 151.20254 899 ft 120 kts 96°
2026-05-06 02:17 -33.95091 151.21359 850 ft 141 kts 94°
2026-05-06 02:18 -33.95219 151.22511 1013 ft 135 kts 105°
2026-05-06 02:18 -33.95387 151.23621 1174 ft 136 kts 96°
2026-05-06 02:18 -33.95483 151.24727 1122 ft 132 kts 101°
2026-05-06 02:18 -33.95598 151.25841 901 ft 136 kts 97°
2026-05-06 02:19 -33.95666 151.26987 700 ft 137 kts 97°
2026-05-06 02:19 -33.95809 151.28124 483 ft 138 kts 106°
2026-05-06 02:19 -33.95966 151.29264 273 ft 141 kts 99°
2026-05-06 02:19 -33.96070 151.30426 151 ft 137 kts 99°
2026-05-06 02:20 -33.96162 151.32113 53 ft 131 kts 89°
2026-05-06 02:27 -33.96150 151.32358 42 ft 123 kts 86°
2026-05-06 02:27 -33.96089 151.33193 599 ft 107 kts 80°
2026-05-06 02:28 -33.95897 151.34138 1041 ft 119 kts 74°
2026-05-06 02:28 -33.95647 151.35178 1293 ft 141 kts 75°
2026-05-06 02:28 -33.95329 151.36290 1662 ft 134 kts 69°
2026-05-06 02:28 -33.94935 151.37286 1984 ft 132 kts 64°
2026-05-06 02:29 -33.94550 151.38272 2052 ft 127 kts 65°
2026-05-06 02:29 -33.94054 151.39099 2196 ft 122 kts 41°
2026-05-06 02:29 -33.93292 151.39539 2188 ft 133 kts 18°
2026-05-06 02:29 -33.92414 151.39905 2237 ft 125 kts 10°
2026-05-06 02:30 -33.91630 151.39729 2496 ft 118 kts 336°
2026-05-06 02:30 -33.90808 151.39350 2415 ft 133 kts 340°
2026-05-06 02:30 -33.89939 151.38990 2403 ft 132 kts 342°
2026-05-06 02:30 -33.89065 151.38643 2370 ft 132 kts 342°
2026-05-06 02:31 -33.88202 151.38305 2327 ft 132 kts 344°
2026-05-06 02:31 -33.87294 151.38066 2244 ft 134 kts 348°
2026-05-06 02:31 -33.86385 151.37852 2194 ft 132 kts 349°
2026-05-06 02:31 -33.85490 151.37614 2211 ft 129 kts 342°
2026-05-06 02:32 -33.84643 151.37275 2208 ft 129 kts 342°
2026-05-06 02:32 -33.83782 151.36933 2204 ft 132 kts 342°
2026-05-06 02:32 -33.82908 151.36564 2263 ft 131 kts 341°
2026-05-06 02:32 -33.82044 151.36196 2302 ft 132 kts 343°
2026-05-06 02:33 -33.81127 151.35883 2243 ft 137 kts 345°
2026-05-06 02:33 -33.80518 151.35662 2252 ft 136 kts 343°
2026-05-06 02:34 -33.77480 151.34583 2127 ft 143 kts 342°
2026-05-06 02:34 -33.76559 151.34201 2100 ft 140 kts 342°
2026-05-06 02:34 -33.75616 151.33852 2018 ft 142 kts 346°
2026-05-06 02:34 -33.74689 151.33622 1978 ft 141 kts 353°
2026-05-06 02:35 -33.73718 151.33504 1963 ft 140 kts 356°
2026-05-06 02:35 -33.72738 151.33465 1910 ft 140 kts
2026-05-06 02:35 -33.71766 151.33558 1861 ft 140 kts
2026-05-06 02:35 -33.70806 151.33503 1761 ft 138 kts 359°
2026-05-06 02:36 -33.69834 151.33532 1437 ft 139 kts
2026-05-06 02:36 -33.68864 151.33712 1085 ft 140 kts
2026-05-06 02:36 -33.67921 151.33712 795 ft 138 kts 354°
2026-05-06 02:36 -33.67274 151.33552 496 ft 141 kts 343°
2026-05-06 02:40 -33.67084 151.33482 440 ft 141 kts 342°
2026-05-06 02:40 -33.66113 151.33220 553 ft 146 kts 349°
2026-05-06 02:40 -33.65102 151.32937 669 ft 148 kts 343°
2026-05-06 02:40 -33.64132 151.32597 919 ft 144 kts 342°
2026-05-06 02:41 -33.63214 151.32158 1193 ft 142 kts 338°
2026-05-06 02:41 -33.62275 151.31815 1425 ft 141 kts 346°
2026-05-06 02:41 -33.61348 151.31442 1675 ft 140 kts 338°
2026-05-06 02:41 -33.60476 151.30902 1830 ft 144 kts 330°
2026-05-06 02:42 -33.59393 151.30769 1359 ft 167 kts
2026-05-06 02:42 -33.58236 151.30864 1201 ft 164 kts
2026-05-06 02:42 -33.57103 151.30964 998 ft 166 kts
2026-05-06 02:42 -33.55975 151.31002 926 ft 160 kts 359°
2026-05-06 02:43 -33.54883 151.30893 942 ft 157 kts 349°
2026-05-06 02:43 -33.53841 151.30533 997 ft 154 kts 342°
2026-05-06 02:43 -33.52806 151.30141 944 ft 157 kts 342°
2026-05-06 02:43 -33.51760 151.29751 930 ft 158 kts 344°
2026-05-06 02:44 -33.50706 151.29449 934 ft 156 kts 349°
2026-05-06 02:44 -33.49614 151.29211 873 ft 158 kts 350°
2026-05-06 02:44 -33.48594 151.28812 870 ft 156 kts 334°
2026-05-06 02:44 -33.47630 151.28184 820 ft 157 kts 335°
2026-05-06 02:45 -33.46614 151.27711 811 ft 156 kts 343°
2026-05-06 02:45 -33.45566 151.27413 834 ft 153 kts 347°
2026-05-06 02:45 -33.44524 151.27108 806 ft 155 kts 343°
2026-05-06 02:45 -33.43509 151.26637 736 ft 157 kts 335°
2026-05-06 02:46 -33.42550 151.26032 738 ft 156 kts 330°
2026-05-06 02:46 -33.41638 151.25373 800 ft 153 kts 327°
2026-05-06 02:46 -33.40747 151.24689 869 ft 151 kts 328°
2026-05-06 02:46 -33.39882 151.24011 934 ft 149 kts 323°
2026-05-06 02:47 -33.39142 151.23129 956 ft 150 kts 311°
2026-05-06 02:47 -33.38638 151.22063 1007 ft 148 kts 288°
2026-05-06 02:47 -33.38508 151.20873 1128 ft 144 kts 268°
2026-05-06 02:47 -33.39148 151.20110 1253 ft 139 kts 177°
2026-05-06 02:48 -33.40071 151.20511 1237 ft 148 kts 162°
2026-05-06 02:48 -33.41045 151.20828 1334 ft 146 kts 166°
2026-05-06 02:48 -33.42021 151.21059 1507 ft 136 kts 177°
2026-05-06 02:48 -33.42986 151.21095 1560 ft 145 kts 178°
2026-05-06 02:49 -33.43988 151.21093 1634 ft 145 kts 181°
2026-05-06 02:49 -33.44999 151.21069 1654 ft 149 kts 186°
2026-05-06 02:49 -33.46017 151.21092 1749 ft 144 kts 173°
2026-05-06 02:49 -33.47030 151.21201 1779 ft 146 kts 176°
2026-05-06 02:50 -33.47973 151.21233 1826 ft 132 kts 180°
2026-05-06 02:50 -33.48879 151.21219 1769 ft 132 kts 181°
2026-05-06 02:50 -33.49813 151.21212 1676 ft 132 kts 178°
2026-05-06 02:50 -33.50727 151.21161 1564 ft 134 kts 184°
2026-05-06 02:51 -33.51658 151.21082 1482 ft 133 kts 183°
2026-05-06 02:51 -33.52575 151.20978 1427 ft 131 kts 186°
2026-05-06 02:51 -33.53465 151.20860 1456 ft 126 kts 186°
2026-05-06 02:51 -33.54344 151.20787 1477 ft 128 kts 182°
2026-05-06 02:52 -33.55220 151.20745 1536 ft 125 kts 182°
2026-05-06 02:52 -33.56050 151.20706 1647 ft 124 kts 182°
2026-05-06 02:52 -33.56991 151.20670 1442 ft 138 kts 182°
2026-05-06 02:52 -33.57943 151.20532 1314 ft 139 kts 191°
2026-05-06 02:53 -33.58885 151.20369 1257 ft 136 kts 184°
2026-05-06 02:53 -33.59805 151.20318 1295 ft 130 kts 183°
2026-05-06 02:53 -33.60643 151.20262 1299 ft 117 kts 181°
2026-05-06 02:53 -33.61447 151.20241 1261 ft 112 kts 181°
2026-05-06 02:54 -33.62155 151.20191 1295 ft 96 kts 184°
2026-05-06 02:54 -33.62837 151.20114 1361 ft 103 kts 185°
2026-05-06 02:54 -33.63619 151.20120 1401 ft 120 kts 178°
2026-05-06 02:54 -33.64470 151.20123 1471 ft 126 kts 180°
2026-05-06 02:55 -33.65360 151.20115 1475 ft 130 kts 178°
2026-05-06 02:55 -33.66256 151.20175 1509 ft 128 kts 178°
2026-05-06 02:55 -33.67137 151.20176 1591 ft 126 kts 182°
2026-05-06 02:55 -33.68012 151.20169 1701 ft 125 kts 180°
2026-05-06 02:56 -33.68861 151.20139 1844 ft 121 kts 185°
2026-05-06 02:56 -33.69761 151.20023 1790 ft 131 kts 188°
2026-05-06 02:56 -33.70644 151.19818 1756 ft 126 kts 192°
2026-05-06 02:56 -33.71427 151.19610 1649 ft 113 kts 187°
2026-05-06 02:57 -33.72233 151.19510 1507 ft 124 kts 182°
2026-05-06 02:57 -33.73122 151.19457 1347 ft 130 kts 186°
2026-05-06 02:57 -33.74017 151.19346 1223 ft 120 kts 185°
2026-05-06 02:57 -33.74773 151.19275 1102 ft 95 kts 156°
2026-05-06 02:58 -33.75044 151.19902 942 ft 95 kts 84°
2026-05-06 02:58 -33.74631 151.20447 929 ft 95 kts 12°
2026-05-06 02:58 -33.73948 151.20393 957 ft 99 kts 342°
2026-05-06 02:58 -33.73478 151.19836 846 ft 104 kts 274°
2026-05-06 02:59 -33.73675 151.19100 901 ft 94 kts 221°
2026-05-06 02:59 -33.74349 151.18872 822 ft 109 kts 178°
2026-05-06 02:59 -33.75139 151.19038 857 ft 118 kts 168°
2026-05-06 02:59 -33.75921 151.19301 996 ft 114 kts 148°
2026-05-06 03:00 -33.76591 151.19786 1188 ft 114 kts 147°
2026-05-06 03:00 -33.77317 151.20246 1232 ft 122 kts 151°
2026-05-06 03:00 -33.78020 151.20826 1249 ft 125 kts 142°
2026-05-06 03:00 -33.78673 151.21504 1343 ft 121 kts 139°
2026-05-06 03:01 -33.79375 151.21990 1472 ft 118 kts 172°
2026-05-06 03:01 -33.80185 151.21854 1612 ft 118 kts 192°
2026-05-06 03:01 -33.80992 151.21579 1690 ft 125 kts 195°
2026-05-06 03:01 -33.81816 151.21222 1662 ft 128 kts 193°
2026-05-06 03:02 -33.82351 151.21839 1659 ft 121 kts 140°
2026-05-06 03:02 -33.83171 151.21655 1632 ft 124 kts 209°
2026-05-06 03:02 -33.83766 151.20930 1694 ft 126 kts 237°
2026-05-06 03:02 -33.84274 151.20071 1750 ft 126 kts 224°
2026-05-06 03:03 -33.84986 151.19404 1544 ft 137 kts 208°
2026-05-06 03:03 -33.85890 151.19107 1465 ft 131 kts 179°
2026-05-06 03:03 -33.86757 151.18873 1313 ft 120 kts 200°
2026-05-06 03:03 -33.87457 151.18469 1176 ft 108 kts 205°
2026-05-06 03:04 -33.88121 151.18084 1093 ft 104 kts 201°
2026-05-06 03:04 -33.88819 151.17815 1027 ft 107 kts 185°
2026-05-06 03:04 -33.89580 151.17765 945 ft 112 kts 176°
2026-05-06 03:04 -33.90375 151.17830 859 ft 120 kts 174°
2026-05-06 03:05 -33.91242 151.17956 717 ft 128 kts 172°
2026-05-06 03:05 -33.92139 151.18123 544 ft 131 kts 170°
2026-05-06 03:05 -33.93019 151.18331 404 ft 127 kts 168°
2026-05-06 03:05 -33.93865 151.18563 252 ft 123 kts 169°
2026-05-06 03:06 -33.94690 151.18767 108 ft 111 kts 167°
2026-05-06 03:06 -33.95149 151.18886 23 ft 91 kts 168°
2026-05-06 03:06 -33.95661 151.19017 19 ft 62 kts 171°
2026-05-06 03:06 -33.95904 151.19074 23 ft 17 kts 168°
2026-05-06 03:07 -33.96059 151.19117 23 ft 16 kts 167°
2026-05-06 03:07 -33.96202 151.19157 21 ft 23 kts 168°
2026-05-06 03:07 -33.96315 151.19184 18 ft 25 kts 170°
2026-05-06 03:07 -33.96487 151.19219 17 ft 25 kts 174°
2026-05-06 03:08 -33.96646 151.19199 12 ft 17 kts 197°
2026-05-06 03:08 -33.96699 151.19174 11 ft 0 kts 214°
2026-05-06 03:08 -33.96721 151.19111 12 ft 14 kts 289°
2026-05-06 03:09 -33.96594 151.19054 13 ft 26 kts 348°
2026-05-06 03:09 -33.96394 151.19001 17 ft 32 kts 348°
2026-05-06 03:09 -33.96168 151.18941 19 ft 35 kts 347°
2026-05-06 03:09 -33.95936 151.18886 21 ft 33 kts 347°
2026-05-06 03:10 -33.95760 151.18842 19 ft 0 kts 349°
2026-05-06 03:10 -33.95738 151.18836 19 ft 8 kts 346°
2026-05-06 03:10 -33.95660 151.18809 19 ft 15 kts 344°
2026-05-06 03:10 -33.95525 151.18773 16 ft 25 kts 351°
2026-05-06 03:11 -33.95349 151.18727 18 ft 26 kts 348°
2026-05-06 03:11 -33.95190 151.18623 18 ft 27 kts 323°
2026-05-06 03:11 -33.95127 151.18422 18 ft 28 kts 270°
2026-05-06 03:11 -33.95163 151.18207 19 ft 26 kts 259°
2026-05-06 03:12 -33.95171 151.18150 20 ft 8 kts 261°
2026-05-06 03:12 -33.95174 151.18127 21 ft 0 kts 258°
2026-05-06 03:13 -33.95176 151.18102 21 ft 12 kts 272°
2026-05-06 03:13 -33.95120 151.17992 21 ft 21 kts 301°
2026-05-06 03:13 -33.94968 151.17910 18 ft 28 kts 346°
2026-05-06 03:14 -33.94770 151.17861 17 ft 29 kts 349°
2026-05-06 03:14 -33.94593 151.17813 20 ft 23 kts 346°
2026-05-06 03:14 -33.94427 151.17769 18 ft 25 kts 345°
2026-05-06 03:14 -33.94252 151.17708 16 ft 27 kts 346°
2026-05-06 03:15 -33.94167 151.17689 16 ft 1 kts 347°
2026-05-06 03:15 -33.94165 151.17688 16 ft 0 kts 346°
2026-05-06 03:15 -33.94145 151.17682 16 ft 12 kts 347°
2026-05-06 03:15 -33.94056 151.17734 18 ft 19 kts 70°
2026-05-06 03:16 -33.94013 151.17909 17 ft 24 kts 75°
2026-05-06 03:16 -33.93969 151.18107 21 ft 25 kts 73°
2026-05-06 03:16 -33.93921 151.18308 23 ft 26 kts 73°
2026-05-06 03:16 -33.93870 151.18531 24 ft 29 kts 75°
2026-05-06 03:17 -33.93813 151.18756 20 ft 20 kts 69°
2026-05-06 03:17 -33.93781 151.18860 21 ft 17 kts 73°
2026-05-06 03:17 -33.93686 151.18957 19 ft 19 kts 352°
2026-05-06 03:17 -33.93673 151.18954 19 ft 2 kts 344°
2026-05-06 03:18 -33.93669 151.18953 19 ft 0 kts 343°
2026-05-06 03:18 -33.93642 151.18942 20 ft 10 kts 342°
2026-05-06 03:18 -33.93568 151.18924 25 ft 12 kts 360°
2026-05-06 03:19 -33.93470 151.18893 25 ft 18 kts 327°
2026-05-06 03:19 -33.93396 151.18862 25 ft 10 kts
2026-05-06 03:19 -33.93395 151.18829 25 ft 8 kts 180°
2026-05-06 03:19 -33.93407 151.18829 25 ft 0 kts 183°